Location: Casalecchio di Reno
(44.4760°N, 11.2757°E)
Time: 21:16:28
(UTC+02:00)

QB50P2 - Pass Details

Date: 21 June 2024
Orbit: 561 x 578 km, 98.0° (Epoch: 18 July)

Event Time Altitude Azimuth Distance (km) Brightness Sun altitude
Rises 03:52:22 0° 15° (NNE) 2,769 ? -13.3°
Reaches altitude 10° 03:54:32 10° 19° (NNE) 1,866 ? -13.1°
Maximum altitude 03:58:33 67° 102° (ESE) 615 ? -12.7°
Enters shadow 04:01:59 14° 184° (S) 1,629 ? -12.3°
